Truckee-Tahoe, CA

4:42 AM PDT on September 23, 2017 (GMT -0700)
Truckee-Tahoe

Weather History for KTRK - November, 2012

Change the Weather History Date:

Sunday, November 4, 2012

  Actual Average Record
Temperature  
Mean Temperature 45 °F -  
Max Temperature 64 °F 57 °F 74 °F (1976)
Min Temperature 26 °F 25 °F 3 °F (2003)
Degree Days  
Heating Degree Days 20    
Moisture  
Dew Point 30 °F    
Average Humidity 76    
Maximum Humidity 100    
Minimum Humidity 26    
Precipitation  
Precipitation 0.00 in - - ()
Sea Level Pressure  
Sea Level Pressure 30.43 in    
Wind  
Wind Speed 2 mph (SSE)    
Max Wind Speed 7 mph    
Max Gust Speed -    
Visibility 6 miles    
Events      
Averages and records for this station are not official NWS values.
T = Trace of Precipitation, MM = Missing Value Source: NWS Daily Summary

Daily Weather History Graph

Daily Weather History Graph

Search for Another Location

Airport or City:

Trip Planner

Search our weather history database for the weather conditions in past years. The results will help you decide how hot, cold, wet, or windy it might be!

Date:

Astronomy

Nov. 04, 2012 Rise Set
Actual Time 6:32 AM PST 4:55 PM PST
Civil Twilight 6:04 AM PST 5:23 PM PST
Nautical Twilight 5:32 AM PST 5:55 PM PST
Astronomical Twilight 5:01 AM PST 6:26 PM PST
Moon 9:38 PM PST (11/4) 11:18 AM PST (11/4)
Length of Visible Light 11h 18m
Length of Day
10h 22m
Waning Gibbous, 71% of the Moon is Illuminated
Nov 4
Waning Gibbous
Nov 6
Last Quarter
Nov 13
New
Nov 20
First Quarter
Nov 28
Full

Hourly Weather History & Observations

Time (PST) Temp. Windchill Dew Point Humidity Pressure Visibility Wind Dir Wind Speed Gust Speed Precip Events Conditions
12:15 AM 32.0 °F - 30.2 °F 93% 30.38 in 1.8 mi Calm Calm - N/A   Clear
12:35 AM 30.2 °F 25.4 °F 26.6 °F 86% 30.38 in 0.8 mi SSE 4.6 mph - N/A   Mist
12:55 AM 28.4 °F - 28.4 °F 100% 30.38 in 9.0 mi Calm Calm - N/A   Clear
1:15 AM 30.2 °F 26.7 °F 28.4 °F 93% 30.38 in 7.0 mi SSE 3.5 mph - N/A   Clear
1:35 AM 32.0 °F - 32.0 °F 100% 30.38 in 10.0 mi Calm Calm - N/A   Clear
1:55 AM 30.2 °F 25.4 °F 28.4 °F 93% 30.38 in 1.5 mi SE 4.6 mph - N/A   Clear
1:15 AM 28.4 °F - 28.4 °F 100% 30.38 in 8.0 mi Calm Calm - N/A   Clear
1:35 AM 30.2 °F - 28.4 °F 93% 30.39 in 5.0 mi Calm Calm - N/A   Clear
1:55 AM 32.0 °F - 30.2 °F 93% 30.39 in 2.0 mi Calm Calm - N/A   Clear
2:15 AM 28.4 °F 24.6 °F 26.6 °F 93% 30.40 in 1.2 mi SSE 3.5 mph - N/A   Clear
2:35 AM 28.4 °F - 28.4 °F 100% 30.39 in 1.0 mi Calm Calm - N/A   Clear
2:55 AM 30.2 °F 26.7 °F 30.2 °F 100% 30.39 in 5.0 mi SSW 3.5 mph - N/A   Clear
3:15 AM 28.4 °F - 28.4 °F 100% 30.39 in 1.2 mi Calm Calm - N/A   Clear
3:35 AM 30.2 °F 26.7 °F 28.4 °F 93% 30.39 in 5.0 mi NNE 3.5 mph - N/A   Clear
3:55 AM 28.4 °F 23.3 °F 26.6 °F 93% 30.40 in 2.0 mi ESE 4.6 mph - N/A   Clear
4:15 AM 26.6 °F - 24.8 °F 93% 30.41 in 0.8 mi Calm Calm - N/A   Mist
4:35 AM 28.4 °F - 26.6 °F 93% 30.41 in 0.8 mi Calm Calm - N/A   Mist
4:55 AM 28.4 °F - 26.6 °F 93% 30.41 in 0.8 mi Calm Calm - N/A   Mist
5:15 AM 28.4 °F - 26.6 °F 93% 30.42 in 1.2 mi Calm Calm - N/A   Clear
5:35 AM 26.6 °F - 24.8 °F 93% 30.42 in 1.0 mi Calm Calm - N/A   Clear
7:50 AM 30.2 °F - 28.4 °F 93% 30.46 in 7.0 mi Calm Calm - N/A   Scattered Clouds
7:55 AM 26.6 °F - 26.6 °F 100% 30.43 in 10.0 mi Calm Calm - N/A   Partly Cloudy
8:55 AM 37.4 °F - 32.0 °F 81% 30.46 in 10.0 mi Calm Calm - N/A   Scattered Clouds
9:55 AM 46.4 °F 43.5 °F 35.6 °F 66% 30.45 in 10.0 mi North 5.8 mph - N/A   Scattered Clouds
10:55 AM 53.6 °F - 33.8 °F 47% 30.45 in 10.0 mi Calm Calm - N/A   Scattered Clouds
11:50 AM 59.0 °F - 32.0 °F 36% 30.43 in 10.0 mi NE 5.8 mph - N/A   Partly Cloudy
12:45 PM 62.6 °F - 32.0 °F 32% 30.42 in 10.0 mi North 6.9 mph - N/A   Scattered Clouds
1:55 PM 64.4 °F - 32.0 °F 30% 30.42 in 10.0 mi North 4.6 mph - N/A   Mostly Cloudy
2:50 PM 64.4 °F - 32.0 °F 30% 30.42 in 10.0 mi Calm Calm - N/A   Mostly Cloudy
3:50 PM 64.4 °F - 28.4 °F 26% 30.42 in 10.0 mi South 6.9 mph - N/A   Scattered Clouds
4:45 PM 59.0 °F - 30.2 °F 34% 30.43 in 10.0 mi Calm Calm - N/A   Scattered Clouds
4:55 PM 57.2 °F - 30.2 °F 36% 30.43 in 9.0 mi Calm Calm - N/A   Clear
5:15 PM 51.8 °F - 32.0 °F 47% 30.44 in 7.0 mi Calm Calm - N/A   Clear
5:35 PM 48.2 °F - 32.0 °F 54% 30.45 in 5.0 mi South 3.5 mph - N/A   Haze
5:55 PM 46.4 °F - 32.0 °F 57% 30.46 in 4.0 mi Calm Calm - N/A   Haze
6:15 PM 44.6 °F 43.1 °F 32.0 °F 61% 30.46 in 8.0 mi South 3.5 mph - N/A   Clear
6:35 PM 44.6 °F 42.2 °F 32.0 °F 61% 30.47 in 9.0 mi SSE 4.6 mph - N/A   Clear
6:55 PM 44.6 °F - 32.0 °F 61% 30.47 in 6.0 mi Calm Calm - N/A   Haze
7:15 PM 39.2 °F 35.9 °F 32.0 °F 75% 30.48 in 7.0 mi South 4.6 mph - N/A   Clear
7:35 PM 39.2 °F 37.0 °F 32.0 °F 75% 30.48 in 10.0 mi South 3.5 mph - N/A   Clear
7:55 PM 37.4 °F - 32.0 °F 81% 30.48 in 9.0 mi Calm Calm - N/A   Clear
8:15 PM 37.4 °F - 32.0 °F 81% 30.48 in 4.0 mi Calm Calm - N/A   Haze
8:35 PM 35.6 °F 32.8 °F 32.0 °F 87% 30.49 in 7.0 mi South 3.5 mph - N/A   Clear
8:55 PM 35.6 °F - 30.2 °F 81% 30.49 in 9.0 mi Calm Calm - N/A   Clear
9:15 PM 35.6 °F - 30.2 °F 81% 30.50 in 8.0 mi Calm Calm - N/A   Clear
9:35 PM 37.4 °F - 30.2 °F 75% 30.50 in 2.0 mi Calm Calm - N/A   Haze
9:55 PM 33.8 °F 29.6 °F 28.4 °F 81% 30.50 in 2.5 mi ESE 4.6 mph - N/A   Haze
10:15 PM 32.0 °F - 28.4 °F 87% 30.50 in 5.0 mi Calm Calm - N/A   Clear
10:35 PM 32.0 °F - 28.4 °F 87% 30.50 in 8.0 mi Calm Calm - N/A   Clear
10:55 PM 33.8 °F - 28.4 °F 81% 30.51 in 1.0 mi Calm Calm - N/A   Haze